BEIDOU-3 M14

Last updated on Nov. 20, 2019, 4:19 a.m. UTC

1 43623U 18072B   19322.54701520  .00000095  00000-0  00000-0 0  9991
2 43623  55.0705 143.0457 0003559 333.4877  29.2865  1.86231913  7916
UTC
Height (km)
Latitude
Longitude
Inclination
Orbital Period
UTC large
Height (km)
Speed (km/s)
/
Latitude / Longitude
Inclination (degrees)
Orbital Period (minutes)
Azimuth
Elevation
Range (km)
Doppler Factor
iOS Compass Heading
iOS Angle

Next 30 passes for location: Hong Kong

Rise time Rise Azimuth (degrees) Set time Set Azimuth (degrees) Duration Max altitude (degrees)

No matching passes for this satellites